User: anonymous   Login
Location: Columbia
(38.9520°N, 92.3340°W)
Time: 19:47:37
(UTC-05:00)
Language:

Cosmos 1603 - Orbit

View from above orbital plane
View from above orbital plane
View from above satellite
View from above satellite

Ground track
Ground track

The orbit data is extracted from the following two-line orbital elements,

1 15333U 84106A   15108.54206812 -.00000013  00000-0  18066-4 0  9997
2 15333 071.0250 307.8797 0020558 325.2436 065.4018 14.13988501576505
Epoch (UTC): 18 April 2015 13:00:34
Eccentricity: 0.0020558
inclination: 71.0250°
perigee height: 831 km
apogee height: 860 km
right ascension of ascending node: 307.8797°
argument of perigee: 325.2436°
revolutions per day: 14.13988501
mean anomaly at epoch: 65.4018°
orbit number at epoch: 57650

The dashed part of the orbit path shows where the satellite is in the earth's shadow,  

DLR